Retour au catalogue

DELTA 1 DEB

LostLEO
NORAD 29182·DEBRIS·🇺🇸 United States

Lancé Jan 11, 1968 depuis Vandenberg Space Force Base

Loading…

Prochains Passages (prochaines 24 heures)

TLE

PériméSource: Space-Track

Époque: Mar 21, 2024, 08:38 UTC

1 29182U 68002F   24081.36039478  .00001976  00000-0  41233-2 0  9991
2 29182 105.8352 274.7159 0263362 303.6145  54.0068 13.22234020115040

Suivez DELTA 1 DEB en temps réel avec AllMySat

Download on the App Store